[[{"header":{"parameterUnit":"m.s-1","parameterCategory":1,"la1":30.2991,"la2":30.254,"lo1":-89.0895,"lo2":-89.0444,"dy":0.0017,"dx":0.0017,"nx":28,"ny":28,"refTime":"2025-07-13T21:00:00:Z","depth":0,"parameterNumber":2,"parameterNumberName":"U-component_of_WINDS"},"data":[0,0,0,0,0,0,0,0,0,0,0,0,0,0,0,0,0,0,0,0,0,0,0,0,0,0,0,0,0,0,0,0,0,0,0,0,0,0,0,0,0,0,0,0,0,0,0,0,0,0,0,0,0,0,0,0,0,0,2.9613,2.9615,0,2.9801,2.9804,2.9806,2.9833,2.9831,2.9829,2.9828,3.0025,3.0031,3.0038,0,0,0,0,0,0,0,0,0,0,0,0,0,2.9282,2.9287,2.9613,2.9616,2.9618,2.9801,2.9804,2.9806,2.9833,2.9831,2.9829,2.9827,3.0022,3.0031,3.0039,0,0,0,0,0,0,0,0,0,0,0,0,0,2.9443,2.9289,2.9613,2.9653,2.9659,2.98,2.9804,2.9807,2.9834,2.9831,2.9828,2.9826,3.002,3.003,3.004,3.0155,0,0,3.0071,3.0076,0,0,0,0,0,0,0,0,2.9434,2.9455,2.9645,2.9651,2.9657,2.9791,2.9759,2.9924,2.9834,2.9767,2.9828,2.9825,2.9949,2.9965,3.0006,3.0165,3.0173,3.0072,3.0079,3.0083,3.0086,0,0,0,0,0,0,0,2.9423,2.9447,2.9688,2.9648,2.9655,2.9663,2.9684,2.979,2.9871,2.9773,2.9776,2.9797,2.9952,2.9996,3.0011,3.0176,3.0072,3.0081,3.0087,3.0092,3.0438,3.0441,0,0,0,0,0,0,2.9404,2.9438,2.9682,2.9693,2.9537,2.9672,2.9694,2.9751,2.987,2.9885,2.9799,2.9798,2.998,2.9999,3.0018,3.0161,3.0083,3.0093,3.0098,3.0435,3.0439,3.0442,0,0,0,0,0,0,2.9396,2.9425,2.9674,2.9566,2.9599,2.968,2.9744,2.9756,2.98,2.9889,2.9904,2.9829,2.9979,3.0004,3.0121,3.0168,3.0097,3.0107,3.0432,3.0436,3.0441,3.0447,0,0,0,0,0,0,2.9387,2.9422,2.9466,2.9567,2.9604,2.9772,2.9746,2.9761,2.9817,2.9817,2.9922,2.9936,2.9979,3.0105,3.0131,3.0181,3.0115,3.0428,3.0434,3.0439,3.0443,3.0451,3.0458,0,0,0,0,0,2.9375,2.9461,2.9468,2.9498,2.9661,2.9775,2.9797,2.9842,2.9821,2.9866,2.9923,2.9933,3.0159,3.0117,3.0146,3.02,3.0425,3.0432,3.0439,3.0439,3.0449,3.0458,0,0,0,0,0,0,2.9365,2.9475,2.9484,2.9606,2.9681,2.9779,2.9838,2.9851,2.9935,2.9932,2.9986,3.001,3.0124,3.0174,3.0125,3.0318,3.029,3.0303,3.0281,3.0291,3.0298,3.0284,3.0123,0,0,0,0,0,2.9377,2.946,2.9552,2.9651,2.9687,2.9756,2.9808,2.9836,2.9917,2.9949,3.0015,3.0094,3.0182,3.024,3.0326,3.045,3.0474,3.0502,3.0509,3.0515,3.0526,3.0595,3.0608,3.0465,3.0465,3.0465,0,0,2.9403,2.9473,2.9522,2.965,2.9712,2.9797,2.9783,2.9874,2.9938,2.9963,3.0077,3.0128,3.022,3.034,3.0397,3.0386,3.057,3.0524,3.0528,3.0536,3.0603,3.0617,3.0629,3.0469,3.0469,3.0468,0,0,2.9493,2.9555,2.9643,2.9705,2.9797,2.9842,2.9863,2.996,2.9995,3.0109,3.013,3.0208,3.036,3.0424,3.0476,3.059,3.0602,3.0617,3.0657,3.0724,3.0735,3.0745,3.0785,3.0799,3.0627,3.0627,3.0627,0,2.9514,2.9641,2.9687,2.9777,2.9833,2.9858,2.9949,3.0007,3.0124,3.0162,3.0147,3.0337,3.0401,3.0537,3.0564,3.0606,3.0633,3.0605,3.0729,3.074,3.075,3.0789,3.0804,3.0629,3.0628,3.0628,3.0628,0,2.9662,2.975,2.9811,2.9921,2.9984,3.0074,3.0134,3.0192,3.0215,3.0262,3.0379,3.0456,3.0558,3.0593,3.0617,3.0732,3.0722,3.0718,3.0691,3.0764,3.0802,3.0817,3.063,3.063,3.0629,3.0629,0,0,2.9751,2.9885,2.9906,2.9956,3.006,3.013,3.0222,3.032,3.0369,3.0449,3.0527,3.0654,3.065,3.071,3.0742,3.08,3.0885,3.0789,3.0792,3.0803,3.1016,3.1017,3.1034,3.0893,3.0896,3.0899,3.1008,0,2.9853,3.0014,3.0058,3.0195,3.0278,3.0303,3.0383,3.0456,3.0502,3.058,3.0632,3.072,3.0709,3.0745,3.0804,3.0862,3.0928,3.0855,3.0967,3.097,3.0942,3.1054,3.1056,3.1155,3.1023,3.1025,3.1027,0,2.9993,3.0073,3.0218,3.0311,3.0348,3.0418,3.0511,3.0585,3.0669,3.0698,3.0764,3.079,3.0887,3.0856,3.099,3.0939,3.0988,3.1023,3.1028,3.104,3.1002,3.1068,3.1188,3.1202,3.1051,3.1049,3.1047,0,3.0042,3.0188,3.0293,3.0335,3.0446,3.0495,3.0544,3.0625,3.0681,3.0763,3.08,3.0894,3.0944,3.1016,3.1067,3.104,3.1197,3.117,3.1225,3.1224,3.1257,3.1254,3.1385,3.1289,3.1289,3.1289,3.1288,0,3.015,3.0238,3.0316,3.0381,3.048,3.053,3.0627,3.0677,3.0749,3.0824,3.0853,3.0924,3.0987,3.1067,3.1107,3.1212,3.1235,3.1262,3.1272,3.1259,3.1256,3.1291,3.1285,3.1293,3.1292,3.1291,3.129,0,3.0222,3.0278,3.0394,3.049,3.0516,3.0584,3.0667,3.0731,3.0778,3.0873,3.0899,3.0973,3.1068,3.1126,3.1247,3.1274,3.1389,3.1397,3.136,3.1364,3.1416,3.1409,3.1574,3.1598,3.1487,3.1488,3.1488,0,3.0287,3.0355,3.0457,3.0509,3.0557,3.0641,3.0698,3.0751,3.0809,3.0909,3.0961,3.1058,3.1137,3.1288,3.1353,3.1446,3.1455,3.1507,3.147,3.1454,3.1455,3.145,3.1457,3.1513,3.1514,3.1514,3.1515,0,3.0396,3.042,3.05,3.0591,3.0658,3.0732,3.0806,3.0847,3.0912,3.0977,3.1073,3.1135,3.1257,3.1352,3.145,3.1502,3.152,3.1526,3.1544,3.1531,3.1506,3.1519,3.1376,3.1522,3.1521,3.1521,3.1521,3.152,3.0466,3.0527,3.0608,3.0697,3.0757,3.0826,3.089,3.0945,3.1026,3.1128,3.1155,3.1256,3.1338,3.1471,3.1525,3.1605,3.1598,3.1623,3.1629,3.1635,3.1635,3.1494,3.1624,3.1623,3.1623,3.1623,3.1623,0,3.0575,3.0628,3.071,3.0811,3.0881,3.0891,3.0973,3.1031,3.1119,3.1193,3.1271,3.1381,3.1474,3.1546,3.1642,3.1692,3.1702,3.1715,3.1711,3.1723,3.1637,3.1612,3.1705,3.1705,3.1705,3.1705,3.1705,3.1705,3.064,3.0744,3.0778,3.0912,3.0965,3.1063,3.1109,3.1172,3.1232,3.1353,3.143,3.1476,3.155,3.1651,3.1736,3.1755,3.1788,3.1799,3.182,3.1738,3.1729,3.172,3.1697,3.1807,3.1807,3.1899,3.19,3.19]},{"header":{"parameterUnit":"m.s-1","parameterCategory":1,"la1":30.2991,"la2":30.254,"lo1":-89.0895,"lo2":-89.0444,"dy":0.0017,"dx":0.0017,"nx":28,"ny":28,"refTime":"2025-07-13T21:00:00:Z","depth":0,"parameterNumber":3,"parameterNumberName":"V-component_of_WINDS"},"data":[0,0,0,0,0,0,0,0,0,0,0,0,0,0,0,0,0,0,0,0,0,0,0,0,0,0,0,0,0,0,0,0,0,0,0,0,0,0,0,0,0,0,0,0,0,0,0,0,0,0,0,0,0,0,0,0,0,0,2.798,2.7979,0,2.7931,2.793,2.7929,2.7928,2.7929,2.7929,2.793,2.7873,2.7871,2.7869,0,0,0,0,0,0,0,0,0,0,0,0,0,2.8065,2.8064,2.798,2.7979,2.7979,2.7931,2.793,2.7929,2.7928,2.7929,2.7929,2.793,2.7873,2.7871,2.7868,0,0,0,0,0,0,0,0,0,0,0,0,0,2.8023,2.8063,2.798,2.7972,2.7971,2.7931,2.793,2.7929,2.7928,2.7929,2.793,2.7931,2.7874,2.7871,2.7868,2.783,0,0,2.7859,2.7857,0,0,0,0,0,0,0,0,2.8026,2.802,2.7974,2.7973,2.7971,2.7937,2.7939,2.7896,2.7928,2.7944,2.793,2.7931,2.7893,2.7888,2.7877,2.7827,2.7825,2.7858,2.7856,2.7855,2.7854,0,0,0,0,0,0,0,2.8028,2.8022,2.796,2.7973,2.7972,2.7969,2.7964,2.7931,2.7914,2.7943,2.7943,2.7937,2.7892,2.788,2.7875,2.7824,2.7858,2.7856,2.7854,2.7852,2.7737,2.7736,0,0,0,0,0,0,2.8034,2.8025,2.7962,2.7959,2.8002,2.7967,2.7961,2.7947,2.7914,2.791,2.7936,2.7937,2.7885,2.7879,2.7873,2.7824,2.7855,2.7852,2.785,2.7738,2.7736,2.7735,0,0,0,0,0,0,2.8036,2.8028,2.7964,2.7992,2.7983,2.7964,2.7948,2.7945,2.7933,2.7909,2.7905,2.7927,2.7885,2.7878,2.784,2.7822,2.7851,2.7848,2.7739,2.7737,2.7736,2.7726,0,0,0,0,0,0,2.8038,2.8029,2.8016,2.7991,2.7982,2.7934,2.7947,2.7944,2.7928,2.7929,2.79,2.7896,2.7885,2.7845,2.7837,2.7818,2.7845,2.7741,2.7738,2.7736,2.7728,2.7724,2.7721,0,0,0,0,0,2.8041,2.8015,2.8016,2.8008,2.7966,2.7933,2.7927,2.7918,2.7927,2.7912,2.7897,2.7897,2.7826,2.7841,2.7832,2.7812,2.7742,2.7739,2.7737,2.773,2.7725,2.7721,0,0,0,0,0,0,2.8036,2.8012,2.8012,2.7978,2.7958,2.7933,2.7915,2.7914,2.7889,2.7891,2.7878,2.7871,2.7833,2.7819,2.7837,2.7771,2.7784,2.778,2.7782,2.7778,2.7774,2.7777,2.7843,0,0,0,0,0,2.8032,2.801,2.7988,2.7959,2.795,2.7934,2.7919,2.7914,2.7892,2.7883,2.7864,2.7841,2.7813,2.7795,2.7768,2.7726,2.7718,2.7708,2.7704,2.7702,2.7697,2.767,2.7664,2.7726,2.7726,2.7726,0,0,2.8021,2.8005,2.7991,2.7958,2.7942,2.7916,2.7927,2.79,2.788,2.7878,2.7841,2.7827,2.7799,2.7759,2.774,2.7746,2.7678,2.7698,2.7696,2.7693,2.7667,2.7661,2.7656,2.7725,2.7725,2.7725,0,0,2.7988,2.7975,2.7948,2.7932,2.7908,2.7897,2.7891,2.7866,2.7857,2.782,2.7817,2.7792,2.7745,2.7725,2.7709,2.7666,2.7663,2.7657,2.7638,2.7612,2.7607,2.7603,2.7584,2.7578,2.7653,2.7653,2.7653,0,2.7977,2.7941,2.7934,2.7907,2.7891,2.789,2.786,2.7844,2.7812,2.7799,2.7807,2.7746,2.7728,2.7681,2.767,2.7658,2.7647,2.766,2.7609,2.7604,2.76,2.7582,2.7575,2.7652,2.7652,2.7653,2.7653,0,2.7927,2.7902,2.7883,2.7853,2.7835,2.7807,2.7793,2.7775,2.777,2.7758,2.7718,2.7696,2.7664,2.7653,2.7648,2.7604,2.7607,2.7612,2.7625,2.7593,2.7576,2.757,2.7651,2.7652,2.7652,2.7652,0,0,2.7889,2.7856,2.7848,2.7833,2.7806,2.7785,2.7755,2.7725,2.7708,2.7686,2.7658,2.7618,2.7621,2.7602,2.7595,2.7572,2.7535,2.7579,2.7578,2.7569,2.7481,2.7476,2.7468,2.7535,2.7533,2.7532,2.7482,0,2.7851,2.7801,2.7793,2.7748,2.7722,2.772,2.7693,2.7672,2.7659,2.7633,2.7618,2.7588,2.7597,2.7585,2.7563,2.7545,2.7517,2.7549,2.7505,2.7503,2.751,2.746,2.7455,2.7409,2.7476,2.7475,2.7474,0,2.78,2.7777,2.773,2.7704,2.7692,2.7669,2.7639,2.7616,2.759,2.7582,2.756,2.7555,2.752,2.7536,2.7486,2.7507,2.7488,2.7477,2.7474,2.7468,2.7485,2.7449,2.7395,2.7387,2.7464,2.7465,2.7466,0,2.7774,2.7731,2.7696,2.7684,2.7654,2.7637,2.7622,2.7598,2.7579,2.7552,2.7539,2.7508,2.749,2.7465,2.7449,2.7463,2.7399,2.7414,2.7388,2.7388,2.7373,2.7374,2.7312,2.7366,2.7366,2.7366,2.7366,0,2.7731,2.7701,2.7684,2.7662,2.7627,2.7617,2.7582,2.7568,2.7546,2.7519,2.7514,2.7488,2.7471,2.7442,2.7429,2.7388,2.738,2.737,2.7366,2.7369,2.737,2.7355,2.7356,2.7364,2.7364,2.7365,2.7365,0,2.7695,2.7683,2.7644,2.7619,2.7611,2.7586,2.7562,2.7539,2.7527,2.7492,2.7483,2.7462,2.7427,2.7409,2.7366,2.7357,2.7308,2.7309,2.7318,2.7316,2.7289,2.7291,2.7214,2.7201,2.7266,2.7266,2.7265,0,2.7667,2.7644,2.7616,2.7599,2.7585,2.7557,2.7538,2.7526,2.7506,2.7473,2.7453,2.7418,2.739,2.7333,2.7311,2.7277,2.7274,2.7249,2.7268,2.727,2.7269,2.727,2.7265,2.7245,2.7244,2.7244,2.7243,0,2.7618,2.7613,2.7587,2.7558,2.7536,2.7513,2.7489,2.7474,2.7458,2.7435,2.74,2.7378,2.7333,2.7297,2.726,2.7242,2.7238,2.7238,2.7229,2.723,2.7235,2.7228,2.7305,2.7239,2.7239,2.724,2.724,2.724,2.7583,2.7562,2.7538,2.7508,2.749,2.7467,2.7444,2.7428,2.7399,2.7363,2.7357,2.7319,2.729,2.7241,2.7222,2.7189,2.7194,2.7183,2.7179,2.7176,2.7173,2.7242,2.7182,2.7183,2.7183,2.7183,2.7183,0,2.7531,2.7516,2.7489,2.7457,2.7432,2.7434,2.7407,2.7386,2.7353,2.7328,2.73,2.7257,2.7222,2.7197,2.716,2.7138,2.7135,2.7128,2.7128,2.7123,2.7172,2.7182,2.7131,2.7131,2.7131,2.7131,2.7131,2.7131,2.7501,2.7464,2.7455,2.7407,2.7391,2.7355,2.7339,2.7317,2.7296,2.725,2.7221,2.7206,2.718,2.714,2.7106,2.71,2.7084,2.7077,2.707,2.7115,2.712,2.7125,2.7134,2.7075,2.7075,2.7023,2.7023,2.7023]}]]